Location: ?????
(54.9266°N, 38.5527°E)
Time: 08:58:44
(UTC+00:00)

Lacrosse 5 - Visible Passes

Search period start: 24 July 2024 00:00
Search period end: 03 August 2024 00:00
Orbit: 714 x 724 km, 57.0° (Epoch: 09 March)

Date Brightness Start Highest point End Pass type
(mag) Time Alt. Az. Time Alt. Az. Time Alt. Az.
24 Jul 2.2 18:33:35 10° W 18:38:39 70° N 18:43:43 10° E visible
24 Jul 1.8 20:16:41 10° WNW 20:21:45 71° SSW 20:26:01 14° SE visible
24 Jul 3.0 22:00:06 10° W 22:04:07 24° SW 22:05:10 22° SSW visible
25 Jul 1.9 19:23:30 10° WNW 19:28:36 90° S 19:33:41 10° ESE visible
25 Jul 2.5 21:06:39 10° WNW 21:11:15 36° SW 21:13:14 26° S visible
26 Jul 2.1 18:30:17 10° WNW 18:35:22 77° NNE 18:40:28 10° E visible
26 Jul 2.1 20:13:22 10° WNW 20:18:17 52° SW 20:21:25 21° SSE visible
26 Jul 3.6 21:57:25 10° W 22:00:21 16° SW 22:00:34 15° SW visible
27 Jul 1.9 19:20:09 10° WNW 19:25:13 72° SSW 19:29:39 13° SE visible
27 Jul 3.1 21:03:32 10° W 21:07:36 24° SW 21:08:50 22° SSW visible
28 Jul 1.9 18:26:57 10° WNW 18:32:03 90° NNW 18:37:08 10° ESE visible
28 Jul 2.6 20:10:06 10° WNW 20:14:43 36° SW 20:17:10 23° S visible
29 Jul 2.2 19:16:49 10° WNW 19:21:45 52° SW 19:25:33 16° SE visible
29 Jul 3.6 21:00:52 10° W 21:03:49 16° SW 21:04:43 15° SW visible
30 Jul 1.9 18:23:37 10° WNW 18:28:40 72° SSW 18:33:43 10° SE visible
30 Jul 3.2 20:07:00 10° W 20:11:03 24° SW 20:13:09 19° SSW visible
31 Jul 2.7 19:13:34 10° WNW 19:18:11 36° SW 19:21:39 16° SSE visible
01 Aug 2.3 18:20:17 10° WNW 18:25:12 53° SW 18:30:07 10° SE visible
01 Aug 3.8 20:04:18 10° W 20:07:17 16° SW 20:09:23 13° SSW visible
02 Aug 3.3 19:10:28 10° W 19:14:31 25° SW 19:17:59 13° S visible
